Jerez de la Frontera, Spain

11:49 AM CEST on June 26, 2017 (GMT +0200)
Jerez

Weather History for LEJR - February, 2013

Change the Weather History Date:

Tuesday, February 12, 2013

  Actual Average Record
Temperature  
Mean Temperature 52 °F -  
Max Temperature 60 °F 63 °F 75 °F (2001)
Min Temperature 42 °F 43 °F 28 °F (2005)
Degree Days  
Heating Degree Days 13    
Growing Degree Days 2 (Base 50)    
Moisture  
Dew Point 42 °F    
Average Humidity 74    
Maximum Humidity 100    
Minimum Humidity 39    
Precipitation  
Precipitation 0.00 in 0.09 in - ()
Sea Level Pressure  
Sea Level Pressure 30.15 in    
Wind  
Wind Speed 5 mph ()    
Max Wind Speed 17 mph    
Max Gust Speed -    
Visibility 6.3 miles    
Events      
Averages and records for this station are not official NWS values.
T = Trace of Precipitation, MM = Missing Value Source: Averaged Metar Reports

Daily Weather History Graph

Daily Weather History Graph

Search for Another Location

Airport or City:

Trip Planner

Search our weather history database for the weather conditions in past years. The results will help you decide how hot, cold, wet, or windy it might be!

Date:

Astronomy

Feb. 12, 2013 Rise Set
Actual Time 8:15 AM CET 7:01 PM CET
Civil Twilight 7:49 AM CET 7:28 PM CET
Nautical Twilight 7:18 AM CET 7:58 PM CET
Astronomical Twilight 6:48 AM CET 8:28 PM CET
Moon 9:10 AM CET (2/12) 9:41 PM CET (2/12)
Length of Visible Light 11h 39m
Length of Day
10h 45m
Waxing Crescent, 6% of the Moon is Illuminated
Feb 12
Waxing Crescent
Feb 17
First Quarter
Feb 25
Full
Mar 4
Last Quarter
Mar 11
New

Hourly Weather History & Observations

Time (CET) Temp. Windchill Dew Point Humidity Pressure Visibility Wind Dir Wind Speed Gust Speed Precip Events Conditions
1:00 AM 44 °F - 40 °F 81% 30.19 in 9 mi WNW 6.9 mph - -  
5:00 AM 46.4 °F - 42.8 °F 87% 30.15 in 6.2 mi Variable 2.3 mph - N/A   Mostly Cloudy
5:30 AM 46.4 °F 45.2 °F 44.6 °F 93% 30.12 in 6.2 mi WNW 3.5 mph - N/A   Mostly Cloudy
6:00 AM 46.4 °F - 44.6 °F 93% 30.12 in 6.2 mi Variable 1.2 mph - N/A   Mostly Cloudy
6:30 AM 46.4 °F - 44.6 °F 93% 30.12 in 6.2 mi Calm Calm - N/A   Mostly Cloudy
7:00 AM 46.4 °F - 44.6 °F 93% 30.12 in 6.2 mi Calm Calm - N/A   Mostly Cloudy
7:30 AM 46.4 °F - 44.6 °F 93% 30.12 in 6.2 mi Calm Calm - N/A   Mostly Cloudy
8:00 AM 44.6 °F - 44.6 °F 100% 30.12 in 6.2 mi Variable 2.3 mph - N/A   Mostly Cloudy
8:30 AM 46.4 °F - 46.4 °F 100% 30.12 in 4.3 mi Calm Calm - N/A   Mostly Cloudy
9:00 AM 46.4 °F - 46.4 °F 100% 30.12 in 6.2 mi Variable 1.2 mph - N/A   Mostly Cloudy
9:30 AM 46.4 °F - 46.4 °F 100% 30.12 in 6.2 mi Calm Calm - N/A   Mostly Cloudy
10:00 AM 48.2 °F - 48.2 °F 100% 30.12 in 6.2 mi Variable 1.2 mph - N/A   Mostly Cloudy
10:30 AM 50.0 °F - 48.2 °F 94% 30.12 in 6.2 mi NNW 4.6 mph - N/A   Scattered Clouds
11:00 AM 50.0 °F - 48.2 °F 94% 30.15 in 6.2 mi NW 5.8 mph - N/A   Scattered Clouds
11:30 AM 51.8 °F - 48.2 °F 88% 30.15 in 6.2 mi NNW 10.4 mph - N/A   Scattered Clouds
12:00 PM 51.8 °F - 46.4 °F 82% 30.15 in 6.2 mi NNW 15.0 mph - N/A   Mostly Cloudy
12:30 PM 53.6 °F - 42.8 °F 67% 30.15 in 6.2 mi NNW 15.0 mph - N/A   Mostly Cloudy
1:00 PM 55 °F - 47 °F 68% 30.17 in 9 mi NNW 17.3 mph - -   Mostly Cloudy
1:00 PM 53.6 °F - 44.6 °F 72% 30.15 in 6.2 mi NNW 17.3 mph - N/A   Mostly Cloudy
1:30 PM 55.4 °F - 44.6 °F 67% 30.15 in 6.2 mi NNW 16.1 mph - N/A   Scattered Clouds
2:00 PM 55.4 °F - 42.8 °F 63% 30.15 in 6.2 mi NNW 13.8 mph - N/A   Mostly Cloudy
2:30 PM 57.2 °F - 42.8 °F 59% 30.12 in 6.2 mi NNW 12.7 mph - N/A   Mostly Cloudy
3:00 PM 57.2 °F - 41.0 °F 55% 30.12 in 6.2 mi NNW 17.3 mph - N/A   Mostly Cloudy
3:30 PM 57.2 °F - 37.4 °F 48% 30.12 in 6.2 mi North 16.1 mph - N/A   Scattered Clouds
4:00 PM 59.0 °F - 37.4 °F 45% 30.12 in 6.2 mi North 16.1 mph - N/A   Scattered Clouds
4:30 PM 59.0 °F - 33.8 °F 39% 30.12 in 6.2 mi NNW 16.1 mph - N/A   Scattered Clouds
5:00 PM 59.0 °F - 33.8 °F 39% 30.12 in 6.2 mi North 13.8 mph - N/A   Scattered Clouds
5:30 PM 59.0 °F - 33.8 °F 39% 30.15 in 6.2 mi North 11.5 mph - N/A   Scattered Clouds
6:00 PM 59.0 °F - 33.8 °F 39% 30.15 in 6.2 mi North 10.4 mph - N/A   Scattered Clouds
6:30 PM 57.2 °F - 37.4 °F 48% 30.15 in 6.2 mi North 8.1 mph - N/A   Partly Cloudy
7:00 PM 54 °F - 42 °F 53% 30.18 in 37 mi North 3.5 mph - -   Scattered Clouds
7:00 PM 53.6 °F - 39.2 °F 58% 30.15 in 6.2 mi Variable 2.3 mph - N/A   Partly Cloudy
7:30 PM 50.0 °F - 39.2 °F 66% 30.18 in - NNW 3.5 mph - N/A   Clear
8:00 PM 50.0 °F - 39.2 °F 66% 30.18 in - Calm Calm - N/A   Clear
8:30 PM 46.4 °F - 41.0 °F 81% 30.18 in - Variable 2.3 mph - N/A   Clear
9:00 PM 48.2 °F - 39.2 °F 71% 30.21 in - Variable 2.3 mph - N/A   Clear
9:30 PM 46.4 °F 44.3 °F 39.2 °F 76% 30.21 in - NW 4.6 mph - N/A   Clear
10:00 PM 44.6 °F - 39.2 °F 81% 30.21 in - Variable 1.2 mph - N/A   Clear
10:30 PM 44.6 °F - 39.2 °F 81% 30.21 in - Variable 1.2 mph - N/A   Clear
11:00 PM 42.8 °F - 39.2 °F 87% 30.21 in - Calm Calm - N/A   Clear